< < Back
Terminal Aerodrome Forecast


Current Version              Previous Versions:   1  2  3  4  5  6  7  8  9  

Terminal Aerodrome Forecast

739
FTUS44 KHUN 031720
TAFHSV
TAF
KHSV 031720Z 0318/0418 32010KT P6SM SCT025 BKN040
      TEMPO 0318/0320 BKN025
     FM040500 VRB03KT P6SM FEW060
     FM041500 28012G20KT P6SM SCT050=

Latest METAR

998
SAUS80 KWBC 032200
MTRHSV
METAR KHSV 032153Z 32010G16KT 10SM FEW048 SCT075 21/09 A2990 RMK AO2
SLP118 T02110094


USA.gov is the U.S. government's official web portal to all federal, state and local government web resources and services.